Voltar ao catálogo

STARLINK-11630

AtivoComunicaçõesVLEO
NORAD 63111·PAYLOAD·🇺🇸 United States

Lançado Feb 27, 2025 de Cape Canaveral Space Force Station

Loading…

Próximas Passagens (próximas 24 horas)

TLE

AtualizadoSource: CelesTrak SupGP

Época: Sep 15, 2026, 03:39 UTC

1 63111C 25039H   26258.15256944  .00016405  00000+0  12746-3 0  2586
2 63111  43.0008 175.1121 0001528 275.9436 308.2568 15.70821553    19

Acompanhe STARLINK-11630 em tempo real com AllMySat

Download on the App Store